Weather History for Goodland, KS

Change the Weather History Date:

Thursday, January 30, 2014

  Actual Average Record
Temperature  
Mean Temperature 36 °F 30 °F  
Max Temperature 51 °F 43 °F 72 °F (1986)
Min Temperature 21 °F 17 °F -15 °F (1918)
Degree Days  
Heating Degree Days 29 35  
Month to date heating degree days 1029 1052  
Since 1 July heating degree days 3395 3459  
Cooling Degree Days 0 0  
Month to date cooling degree days 0 0  
Year to date cooling degree days 0 0  
Moisture  
Dew Point 24 °F    
Average Humidity 69    
Maximum Humidity 100    
Minimum Humidity 37    
Precipitation  
Precipitation 0.16 in 0.02 in 0.35 in (1896)
Month to date precipitation 0.40 0.37  
Year to date precipitation 0.40 0.37  
Snow  
Snow 2.40 in 0.20 in - ()
Month to date snowfall 7.8 5.7  
Since 1 July snowfall 14.6 18.4  
Snow Depth 0.00 in    
Sea Level Pressure  
Sea Level Pressure 29.76 in    
Wind  
Wind Speed 16 mph (East)    
Max Wind Speed 38 mph    
Max Gust Speed 49 mph    
Visibility 6 miles    
Events Snow    
T = Trace of Precipitation, MM = Missing Value Source: NWS Daily Summary

Daily Weather History Graph

Daily Weather History Graph

Search for Another Location

Airport:

Trip Planner

Search our weather history database for the weather conditions in past years. The results will help you decide how hot, cold, wet, or windy it might be!

Date:

Astronomy

Jan. 30, 2014 Rise Set
Actual Time 6:55 AM MST 5:04 PM MST
Civil Twilight 6:27 AM MST 5:33 PM MST
Nautical Twilight 5:55 AM MST 6:05 PM MST
Astronomical Twilight 5:23 AM MST 6:37 PM MST
Moon 6:23 AM MST (1/30) 5:18 PM MST (1/30)
Length of Visible Light 11h 06m
Length of Day
10h 09m
Waning Crescent, 0% of the Moon is Illuminated
Jan 30
Waning Crescent
Jan 30
New
Feb 6
First Quarter
Feb 14
Full
Feb 22
Last Quarter

Hourly Weather History & Observations

Time (MST) Temp. Windchill Dew Point Humidity Pressure Visibility Wind Dir Wind Speed Gust Speed Precip Events Conditions
12:53 AM 37.9 °F 29.2 °F 21.0 °F 51% 29.40 in 10.0 mi WSW 15.0 mph - N/A   Clear
1:53 AM 42.1 °F 36.1 °F 25.0 °F 51% 29.42 in 10.0 mi West 10.4 mph - N/A   Mostly Cloudy
2:53 AM 44.1 °F 38.1 °F 26.1 °F 49% 29.45 in 10.0 mi West 11.5 mph - N/A   Overcast
3:53 AM 46.9 °F - 28.0 °F 48% 29.47 in 10.0 mi NNW 25.3 mph 29.9 mph N/A   Overcast
4:53 AM 44.1 °F 33.8 °F 30.9 °F 60% 29.55 in 10.0 mi North 31.1 mph 40.3 mph N/A   Mostly Cloudy
5:53 AM 39.9 °F 29.7 °F 28.9 °F 65% 29.60 in 10.0 mi NNW 23.0 mph 33.4 mph N/A   Overcast
6:53 AM 37.9 °F 28.5 °F 28.9 °F 70% 29.63 in 10.0 mi NNW 17.3 mph - N/A   Overcast
7:53 AM 37.0 °F 28.1 °F 28.9 °F 73% 29.68 in 10.0 mi NNW 15.0 mph - N/A   Partly Cloudy
8:53 AM 39.9 °F 31.4 °F 28.9 °F 65% 29.69 in 10.0 mi North 16.1 mph - N/A   Clear
9:53 AM 44.1 °F 35.9 °F 28.0 °F 53% 29.72 in 10.0 mi North 19.6 mph 27.6 mph N/A   Clear
10:53 AM 45.0 °F 37.4 °F 28.0 °F 52% 29.73 in 10.0 mi NNE 18.4 mph - N/A   Overcast
11:53 AM 43.0 °F 35.7 °F 28.9 °F 58% 29.75 in 10.0 mi ENE 15.0 mph - N/A   Overcast
12:53 PM 41.0 °F 33.9 °F 27.0 °F 57% 29.74 in 10.0 mi ENE 12.7 mph - N/A   Overcast
1:53 PM 39.0 °F 30.6 °F 25.0 °F 57% 29.75 in 10.0 mi East 15.0 mph 20.7 mph N/A   Overcast
2:53 PM 39.0 °F 31.0 °F 24.1 °F 55% 29.76 in 10.0 mi East 13.8 mph - N/A   Overcast
3:53 PM 36.0 °F 27.1 °F 21.0 °F 55% 29.79 in 10.0 mi East 13.8 mph - N/A   Overcast
4:53 PM 34.0 °F 25.0 °F 19.9 °F 56% 29.81 in 10.0 mi East 12.7 mph - N/A   Overcast
5:53 PM 30.9 °F 20.7 °F 21.0 °F 67% 29.86 in 5.0 mi East 13.8 mph - 0.00 in Snow Light Snow
6:01 PM 30.0 °F 20.5 °F 23.0 °F 75% 29.83 in 2.5 mi East 11.5 mph - 0.00 in Snow Light Snow
6:14 PM 28.9 °F 18.6 °F 25.0 °F 85% 29.85 in 1.2 mi East 12.7 mph - 0.00 in Snow Light Snow
6:53 PM 27.0 °F 15.2 °F 25.0 °F 92% 29.90 in 1.2 mi ESE 15.0 mph - 0.03 in Snow Light Snow
7:04 PM 27.0 °F 15.6 °F 25.0 °F 92% 29.85 in 0.8 mi ESE 13.8 mph - 0.02 in Snow Light Snow
7:16 PM 26.1 °F 14.5 °F 25.0 °F 96% 29.85 in 1.0 mi ESE 13.8 mph - 0.03 in Snow Light Snow
7:24 PM 26.1 °F 14.5 °F 25.0 °F 96% 29.85 in 1.0 mi East 13.8 mph - 0.03 in Snow Light Snow
7:39 PM 26.1 °F 14.0 °F 24.1 °F 92% 29.84 in 1.5 mi East 15.0 mph - 0.04 in Snow Light Snow
7:45 PM 26.1 °F 13.6 °F 24.1 °F 92% 29.83 in 3.0 mi East 16.1 mph - 0.04 in Snow Light Snow
7:53 PM 26.1 °F 13.6 °F 24.1 °F 92% 29.88 in 5.0 mi East 16.1 mph - 0.04 in Snow Light Snow
8:18 PM 25.0 °F 13.1 °F 23.0 °F 92% 29.84 in 2.0 mi East 13.8 mph - 0.01 in Snow Light Snow
8:21 PM 25.0 °F 12.2 °F 23.0 °F 92% 29.84 in 1.5 mi East 16.1 mph - 0.01 in Snow Light Snow
8:53 PM 25.0 °F 12.2 °F 23.0 °F 92% 29.88 in 1.5 mi East 16.1 mph - 0.03 in Snow Light Snow
9:12 PM 24.1 °F 11.5 °F 23.0 °F 96% 29.82 in 0.8 mi East 15.0 mph - 0.01 in Snow Light Snow
9:40 PM 24.1 °F 11.5 °F 23.0 °F 96% 29.81 in 1.0 mi East 15.0 mph - 0.03 in Snow Light Snow
9:43 PM 24.1 °F 11.5 °F 23.0 °F 96% 29.81 in 1.0 mi East 15.0 mph - 0.03 in Snow Light Snow
9:53 PM 24.1 °F 12.0 °F 23.0 °F 96% 29.86 in 1.5 mi East 13.8 mph - 0.04 in Snow Light Snow
10:03 PM 24.1 °F 10.1 °F 21.9 °F 91% 29.82 in 1.5 mi East 18.4 mph - 0.00 in Snow Light Snow
10:44 PM 23.0 °F 8.7 °F 21.0 °F 92% 29.81 in 3.0 mi East 18.4 mph - 0.01 in Snow Light Snow
10:53 PM 21.9 °F 8.2 °F 21.0 °F 96% 29.86 in 3.0 mi East 16.1 mph - 0.01 in Snow Light Snow
11:16 PM 21.9 °F 7.3 °F 19.9 °F 92% 29.82 in 5.0 mi East 18.4 mph - 0.00 in Snow Light Snow
11:28 PM 21.9 °F 7.3 °F 19.9 °F 92% 29.80 in 6.0 mi East 18.4 mph - 0.00 in   Overcast
11:53 PM 21.0 °F 8.1 °F 19.9 °F 96% 29.85 in 2.0 mi East 13.8 mph - 0.01 in Snow Light Snow